Location: Malanoce
(44.2500°N, 7.4667°E)
Time: 23:24:58
(UTC+00:00)

Nadezhda 4 Rocket - Pass Details

Date: 17 November 2025
Orbit: 949 x 991 km, 82.9° (Epoch: 09 December)

Event Time Altitude Azimuth Distance (km) Brightness Sun altitude
Rises 18:12:46 0° 349° (N) 3,702 7.1 -23.4°
Reaches altitude 10° 18:15:19 10° 347° (NNW) 2,745 6.4 -23.9°
Maximum altitude 18:21:32 66° 267° (W) 1,059 4.3 -25.0°
Drops below altitude 10° 18:27:39 10° 186° (S) 2,698 6.4 -26.1°
Sets 18:30:09 0° 184° (S) 3,634 7.1 -26.5°
